Total_Precipitation_Accumulation
0.03 0.08 0.22 0.67 1.51 1.24 0.65 0.10 0.07 0.07 0.07 0.09 0.01 0.02 0.09 0.09 0.14 0.23 0.01 0.01 0.00 0.00 0.00 0.01 0.01 0.00 0.00 0.00 0.01 0.00 0.00 0.01 0.03 0.02 0.01 0.00 0.00 0.00 0.00 0.00 0.00 0.01 0.01 0.01 0.01 0.02 0.11 0.09 0.02
0.10 0.15 0.25 0.96 1.00 1.01 0.57 0.28 0.13 0.04 0.03 0.07 0.02 0.05 0.13 0.19 0.00 0.00 0.00 0.01 0.01 0.00 0.00 0.00 0.00 0.00 0.00 0.00 0.01 0.00 0.00 0.00 0.00 0.01 0.00 0.00 0.00 0.00 0.00 0.00 0.00 0.03 0.01 0.00 0.02 0.02 0.03 0.04 0.02
0.07 0.22 0.24 0.41 0.21 0.18 0.19 0.05 0.04 0.02 0.02 0.06 0.08 0.02 0.03 0.00 0.00 0.00 0.00 0.01 0.00 0.00 0.00 0.00 0.01 0.00 0.00 0.00 0.00 0.00 0.00 0.00 0.00 0.00 0.00 0.00 0.00 0.00 0.00 0.00 0.00 0.00 0.00 0.00 0.02 0.06 0.05 0.04 0.04
0.01 0.07 0.22 0.12 0.08 0.02 0.09 0.05 0.05 0.04 0.05 0.04 0.02 0.04 0.01 0.00 0.00 0.00 0.00 0.01 0.00 0.00 0.00 0.00 0.01 0.00 0.00 0.00 0.00 0.00 0.00 0.00 0.00 0.00 0.02 0.00 0.00 0.00 0.00 0.00 0.00 0.00 0.00 0.01 0.06 0.15 0.21 0.21 0.06
0.00 0.00 0.03 0.02 0.00 0.00 0.04 0.02 0.06 0.04 0.08 0.07 0.01 0.04 0.05 0.02 0.00 0.00 0.01 0.00 0.00 0.00 0.00 0.00 0.03 0.00 0.01 0.00 0.00 0.00 0.00 0.00 0.00 0.00 0.01 0.00 0.00 0.00 0.00 0.00 0.00 0.01 0.00 0.00 0.02 0.15 0.39 0.35 0.06
0.00 0.00 0.00 0.00 0.00 0.00 0.00 0.00 0.03 0.09 0.11 0.07 0.84 0.13 0.11 0.07 0.01 0.00 0.02 0.00 0.00 0.00 0.00 0.00 0.02 0.01 0.00 0.01 0.01 0.01 0.00 0.00 0.00 0.00 0.00 0.00 0.00 0.00 0.00 0.00 0.00 0.00 0.02 0.05 0.01 0.07 0.24 0.26 0.16
0.00 0.00 0.00 0.00 0.00 0.00 0.00 0.00 0.00 0.02 0.10 0.03 0.16 0.44 0.05 0.07 0.04 0.03 0.01 0.00 0.00 0.02 0.00 0.00 0.00 0.01 0.00 0.01 0.01 0.01 0.00 0.00 0.00 0.00 0.03 0.06 0.01 0.00 0.08 0.18 0.17 0.12 0.17 0.28 0.09 0.11 0.18 0.22 0.17
0.00 0.00 0.00 0.00 0.00 0.00 0.00 0.00 0.03 0.01 0.00 0.03 0.04 0.13 0.02 0.04 0.05 0.03 0.01 0.01 0.02 0.03 0.01 0.00 0.00 0.00 0.00 0.01 0.01 0.01 0.00 0.01 0.00 0.05 0.09 0.16 0.18 0.13 0.37 0.45 0.41 0.44 0.47 0.46 0.32 0.31 0.21 0.16 0.20
0.00 0.00 0.00 0.00 0.00 0.00 0.00 0.00 0.01 0.01 0.01 0.04 0.04 0.02 0.00 0.02 0.00 0.00 0.00 0.04 0.06 0.03 0.04 0.00 0.00 0.00 0.00 0.00 0.00 0.01 0.00 0.01 0.01 0.12 0.24 0.26 0.07 0.62 1.94 0.33 0.32 0.35 0.25 0.35 0.40 0.34 0.17 0.04 0.06
0.00 0.00 0.00 0.00 0.00 0.00 0.00 0.00 0.00 0.03 0.09 0.12 0.08 0.02 0.02 0.01 0.00 0.00 0.00 0.02 0.04 0.06 0.05 0.00 0.00 0.00 0.00 0.00 0.00 0.00 0.02 0.04 0.05 0.43 0.54 0.38 0.25 2.82 1.20 0.28 0.28 0.25 0.26 0.56 0.39 0.11 0.13 0.10 0.05
0.00 0.00 0.00 0.00 0.00 0.00 0.00 0.00 0.00 0.00 0.03 0.02 0.02 0.06 0.04 0.00 0.01 0.00 0.00 0.00 0.01 0.01 0.00 0.01 0.01 0.00 0.00 0.00 0.01 0.00 0.00 0.06 0.08 0.26 0.31 0.37 0.65 1.06 0.62 0.43 0.53 0.56 0.56 0.43 0.16 0.07 0.12 0.11 0.03
0.00 0.00 0.00 0.00 0.00 0.00 0.00 0.00 0.00 0.00 0.00 0.02 0.04 0.06 0.03 0.00 0.02 0.01 0.01 0.00 0.00 0.00 0.00 0.06 0.06 0.00 0.01 0.00 0.04 0.08 0.05 0.06 0.03 0.19 0.10 0.28 0.16 0.22 0.29 0.34 0.26 0.32 0.41 0.30 0.17 0.16 0.05 0.06 0.08
0.00 0.00 0.00 0.00 0.00 0.00 0.00 0.00 0.00 0.00 0.02 0.07 0.05 0.19 0.09 0.00 0.00 0.03 0.05 0.11 0.07 0.01 0.01 0.06 0.03 0.00 0.03 0.08 0.05 0.13 0.10 0.02 0.02 0.04 0.07 0.23 0.06 0.13 0.22 0.26 0.23 0.76 0.50 0.48 0.45 0.31 0.09 0.03 0.04
0.00 0.00 0.00 0.00 0.00 0.00 0.00 0.00 0.00 0.00 0.05 0.24 0.05 0.02 0.01 0.00 0.01 0.03 0.03 0.06 0.05 0.02 0.01 0.02 0.00 0.01 0.02 0.05 0.06 0.08 0.02 0.09 0.25 0.04 0.00 0.00 0.02 0.10 0.56 0.38 0.15 0.23 0.31 0.33 0.27 0.60 0.44 0.18 0.02
0.00 0.00 0.00 0.00 0.00 0.00 0.00 0.00 0.00 0.01 0.00 0.01 0.03 0.02 0.03 0.06 0.07 0.05 0.02 0.00 0.02 0.01 0.10 0.01 0.00 0.00 0.02 0.04 0.01 0.01 0.01 0.01 0.05 0.01 0.00 0.01 0.01 0.06 0.34 0.41 0.38 0.51 0.47 0.40 0.38 0.25 0.51 0.41 0.08
0.00 0.00 0.00 0.00 0.00 0.00 0.00 0.00 0.00 0.03 0.00 0.01 0.05 0.04 0.02 0.09 0.13 0.15 0.06 0.03 0.02 0.04 0.05 0.01 0.00 0.00 0.01 0.06 0.02 0.00 0.03 0.02 0.01 0.00 0.00 0.01 0.04 0.09 0.32 0.43 0.58 1.18 0.82 0.98 0.54 0.25 0.44 0.55 0.42
0.00 0.00 0.00 0.00 0.00 0.00 0.00 0.00 0.00 0.00 0.00 0.01 0.04 0.05 0.13 0.22 0.17 0.17 0.10 0.05 0.03 0.05 0.08 0.09 0.01 0.00 0.00 0.03 0.03 0.03 0.09 0.03 0.04 0.02 0.05 0.00 0.15 0.15 0.19 0.30 0.39 0.54 0.44 0.59 0.49 0.35 0.42 0.61 0.71
0.00 0.00 0.00 0.00 0.00 0.00 0.00 0.00 0.00 0.00 0.01 0.02 0.03 0.04 0.44 0.57 0.28 0.22 0.05 0.04 0.06 0.02 0.05 0.10 0.04 0.00 0.02 0.04 0.05 0.04 0.04 0.01 0.12 0.04 0.02 0.01 0.15 0.37 0.31 0.15 0.29 0.18 0.40 0.55 0.33 0.22 0.29 0.37 0.45
0.00 0.00 0.00 0.00 0.00 0.00 0.00 0.00 0.00 0.00 0.00 0.00 0.00 0.04 0.11 0.37 0.26 0.07 0.08 0.02 0.24 0.09 0.07 0.02 0.01 0.02 0.03 0.03 0.04 0.05 0.02 0.01 0.18 0.18 0.08 0.02 0.12 0.73 0.26 0.26 0.16 0.10 0.25 0.48 0.38 0.24 0.20 0.43 0.43
0.00 0.00 0.00 0.00 0.00 0.00 0.00 0.00 0.00 0.00 0.00 0.01 0.02 0.01 0.05 0.54 0.25 0.04 0.06 0.02 0.02 0.05 0.01 0.00 0.00 0.00 0.02 0.04 0.03 0.03 0.07 0.02 0.12 0.22 0.22 0.22 0.17 0.42 0.13 0.28 0.06 0.14 0.15 0.39 0.39 0.36 0.60 0.61 0.49
0.00 0.00 0.00 0.00 0.00 0.00 0.00 0.00 0.00 0.01 0.00 0.00 0.02 0.03 0.02 0.13 0.33 0.14 0.07 0.05 0.01 0.01 0.05 0.07 0.01 0.10 0.18 0.06 0.13 0.11 0.06 0.02 0.11 0.03 0.07 0.04 0.28 0.34 0.42 0.61 0.33 0.31 0.15 0.37 0.44 0.24 0.28 0.58 0.74
0.00 0.00 0.00 0.00 0.00 0.00 0.00 0.07 0.05 0.11 0.06 0.02 0.00 0.01 0.01 0.01 0.21 0.24 0.08 0.08 0.02 0.03 0.22 0.23 0.19 0.30 0.55 0.31 0.14 0.35 0.36 0.27 0.12 0.21 0.05 0.17 0.35 0.54 0.45 0.44 0.63 0.26 0.03 0.30 0.35 0.12 0.36 0.55 0.73
0.00 0.00 0.00 0.00 0.00 0.00 0.00 0.03 0.14 0.14 0.19 0.05 0.01 0.02 0.05 0.03 0.10 0.35 0.18 0.13 0.30 0.62 0.82 0.79 0.46 0.43 0.61 0.48 0.41 0.52 0.51 0.53 0.25 0.12 0.21 0.22 0.10 0.15 0.37 0.35 0.74 0.25 0.17 0.22 0.31 0.13 0.25 0.22 0.34
0.00 0.00 0.00 0.00 0.00 0.00 0.00 0.01 0.13 0.10 0.07 0.04 0.01 0.02 0.02 0.01 0.02 0.15 0.18 0.37 0.77 1.00 1.43 1.57 1.19 1.12 0.89 0.66 0.47 0.50 0.72 1.10 1.15 0.66 0.87 0.29 0.22 0.05 0.13 0.37 0.56 0.57 0.25 0.36 0.48 0.38 0.21 0.15 0.38
0.00 0.00 0.00 0.00 0.00 0.01 0.00 0.00 0.05 0.02 0.02 0.02 0.01 0.02 0.00 0.00 0.00 0.12 0.23 0.34 0.52 0.55 0.72 1.36 1.25 1.16 1.79 1.67 0.90 0.70 0.87 0.99 1.11 0.96 0.97 0.71 0.44 0.19 0.07 0.43 0.38 0.27 0.26 0.42 0.49 0.39 0.22 0.24 0.40
0.00 0.00 0.00 0.00 0.00 0.00 0.00 0.01 0.00 0.04 0.03 0.18 0.12 0.04 0.06 0.03 0.02 0.02 0.13 0.33 0.36 0.10 0.15 0.39 0.59 0.76 1.16 0.92 0.60 0.56 0.60 0.72 0.82 0.81 0.50 0.29 0.36 0.87 0.42 0.30 0.22 0.21 0.36 0.22 0.26 0.34 0.17 0.14 0.30
0.00 0.00 0.00 0.00 0.00 0.00 0.00 0.00 0.03 0.04 0.01 0.08 0.22 0.18 0.13 0.10 0.03 0.03 0.06 0.09 0.13 0.11 0.08 0.22 0.25 0.21 0.45 0.48 0.68 0.62 0.62 0.55 0.53 0.63 0.56 0.30 0.30 0.36 0.31 0.22 0.20 0.20 0.25 0.30 0.48 0.28 0.14 0.20 0.33
0.00 0.00 0.00 0.00 0.00 0.00 0.01 0.00 0.33 0.23 0.01 0.03 0.16 0.37 0.13 0.09 0.01 0.02 0.04 0.08 0.14 0.10 0.11 0.13 0.22 0.16 0.22 0.35 0.39 0.53 0.79 1.13 1.13 0.64 0.67 0.48 0.30 0.22 0.21 0.20 0.18 0.16 0.22 0.56 0.44 0.15 0.12 0.20 0.39
0.00 0.00 0.00 0.00 0.00 0.02 0.03 0.11 0.05 0.08 0.06 0.13 0.39 0.39 0.09 0.07 0.00 0.00 0.01 0.06 0.11 0.11 0.16 0.17 0.09 0.05 0.11 0.22 0.29 0.47 0.41 0.51 0.38 0.50 0.37 0.27 0.35 0.21 0.16 0.32 0.44 0.31 0.22 0.35 0.25 0.22 0.47 0.38 0.39
0.00 0.00 0.00 0.00 0.00 0.00 0.00 0.03 0.00 0.03 0.27 0.14 0.09 0.04 0.06 0.06 0.00 0.00 0.01 0.03 0.08 0.11 0.12 0.21 0.17 0.11 0.18 0.23 0.16 0.29 0.27 0.20 0.15 0.17 0.17 0.15 0.15 0.18 0.16 0.23 0.21 0.19 0.23 0.26 0.28 0.35 0.53 0.33 0.29